[[{"header":{"parameterUnit":"m.s-1","parameterCategory":1,"la1":30.2991,"la2":30.254,"lo1":-89.0895,"lo2":-89.0444,"dy":0.0017,"dx":0.0017,"nx":28,"ny":28,"refTime":"2026-03-02T09:00:00:Z","depth":0,"parameterNumber":2,"parameterNumberName":"U-component_of_WINDS"},"data":[0,0,0,0,0,0,0,0,0,0,0,0,0,0,0,0,0,0,0,0,0,0,0,0,0,0,0,0,0,0,0,0,0,0,0,0,0,0,0,0,0,0,0,0,0,0,0,0,0,0,0,0,0,0,0,0,0,0,-1.8065,-1.8065,0,-1.8055,-1.8054,-1.8054,-1.7995,-1.7993,-1.7992,-1.7991,-1.7981,-1.7982,-1.7983,0,0,0,0,0,0,0,0,0,0,0,0,0,-1.8034,-1.8035,-1.8065,-1.8065,-1.8065,-1.8055,-1.8054,-1.8054,-1.7995,-1.7993,-1.7992,-1.799,-1.7981,-1.7982,-1.7983,0,0,0,0,0,0,0,0,0,0,0,0,0,-1.8038,-1.8036,-1.8065,-1.8034,-1.8031,-1.8055,-1.8054,-1.8054,-1.7995,-1.7993,-1.7991,-1.7989,-1.798,-1.7982,-1.7984,-1.8037,0,0,-1.7989,-1.7989,0,0,0,0,0,0,0,0,-1.8038,-1.804,-1.8039,-1.8036,-1.8033,-1.8024,-1.804,-1.8048,-1.7996,-1.8009,-1.7991,-1.7988,-1.7997,-1.7997,-1.8,-1.8036,-1.8036,-1.7989,-1.799,-1.799,-1.7991,0,0,0,0,0,0,0,-1.8038,-1.804,-1.8061,-1.8039,-1.8035,-1.8021,-1.8019,-1.8041,-1.8015,-1.8008,-1.8003,-1.8003,-1.7995,-1.7999,-1.7999,-1.8036,-1.7989,-1.799,-1.7991,-1.7992,-1.8114,-1.8116,0,0,0,0,0,0,-1.8042,-1.804,-1.8061,-1.8061,-1.803,-1.8023,-1.8021,-1.8029,-1.8015,-1.8011,-1.8005,-1.8,-1.7997,-1.7998,-1.7999,-1.8059,-1.799,-1.7992,-1.7993,-1.8112,-1.8114,-1.8117,0,0,0,0,0,0,-1.8042,-1.8044,-1.8062,-1.8049,-1.805,-1.8026,-1.8035,-1.803,-1.8033,-1.8013,-1.8008,-1.8013,-1.7995,-1.7997,-1.8027,-1.8058,-1.7993,-1.7994,-1.8109,-1.8112,-1.8116,-1.8181,0,0,0,0,0,0,-1.8041,-1.8045,-1.8065,-1.805,-1.8051,-1.809,-1.8037,-1.8031,-1.8036,-1.803,-1.8019,-1.8015,-1.7994,-1.8025,-1.8029,-1.8059,-1.7995,-1.8106,-1.811,-1.8114,-1.8176,-1.8187,-1.8195,0,0,0,0,0,-1.804,-1.8084,-1.8066,-1.8069,-1.8075,-1.8092,-1.8093,-1.8067,-1.8039,-1.8058,-1.8045,-1.8016,-1.8054,-1.8029,-1.8033,-1.8064,-1.8104,-1.8109,-1.8114,-1.8172,-1.8185,-1.8195,0,0,0,0,0,0,-1.8104,-1.8082,-1.8061,-1.8102,-1.8099,-1.8082,-1.8106,-1.8081,-1.8087,-1.8081,-1.8049,-1.8047,-1.8083,-1.8076,-1.8048,-1.8114,-1.8074,-1.808,-1.8117,-1.8129,-1.8138,-1.8139,-1.7997,0,0,0,0,0,-1.8122,-1.8138,-1.8118,-1.8155,-1.8155,-1.8131,-1.8138,-1.8118,-1.8114,-1.8113,-1.8102,-1.81,-1.8111,-1.8119,-1.8129,-1.8175,-1.8172,-1.8198,-1.8208,-1.8216,-1.8222,-1.8245,-1.8256,-1.8134,-1.8133,-1.8133,0,0,-1.8162,-1.8151,-1.8163,-1.8168,-1.8164,-1.818,-1.8131,-1.8151,-1.8163,-1.8116,-1.8144,-1.8136,-1.8131,-1.817,-1.8186,-1.8166,-1.8255,-1.8222,-1.8229,-1.823,-1.8251,-1.8263,-1.8273,-1.8137,-1.8136,-1.8136,0,0,-1.8241,-1.8235,-1.8265,-1.8261,-1.8255,-1.8239,-1.8246,-1.8233,-1.8225,-1.8253,-1.8218,-1.8232,-1.8253,-1.825,-1.8252,-1.833,-1.8303,-1.8334,-1.8384,-1.8407,-1.8416,-1.8425,-1.8452,-1.8462,-1.834,-1.834,-1.834,0,-1.829,-1.8314,-1.8284,-1.8306,-1.8309,-1.8266,-1.8297,-1.8295,-1.8293,-1.8296,-1.8273,-1.8297,-1.8291,-1.8328,-1.8347,-1.835,-1.8357,-1.8335,-1.8417,-1.8425,-1.8433,-1.8458,-1.8469,-1.8343,-1.8343,-1.8343,-1.8342,0,-1.8374,-1.8391,-1.8416,-1.8414,-1.842,-1.8446,-1.842,-1.843,-1.8409,-1.8395,-1.8424,-1.8415,-1.8421,-1.8429,-1.8409,-1.8463,-1.845,-1.8423,-1.8382,-1.8449,-1.8472,-1.8482,-1.8349,-1.8348,-1.8346,-1.8345,0,0,-1.8494,-1.8474,-1.8484,-1.8482,-1.8472,-1.8484,-1.8508,-1.8514,-1.8522,-1.8522,-1.8541,-1.8559,-1.8533,-1.8535,-1.8515,-1.8535,-1.8597,-1.8505,-1.8505,-1.8522,-1.8655,-1.8675,-1.8687,-1.8579,-1.858,-1.8582,-1.8655,0,-1.857,-1.8609,-1.8582,-1.8626,-1.8641,-1.86,-1.8621,-1.8617,-1.8605,-1.8616,-1.8602,-1.8615,-1.858,-1.8581,-1.8599,-1.8586,-1.8623,-1.858,-1.8596,-1.8597,-1.8598,-1.87,-1.8722,-1.8791,-1.8664,-1.8666,-1.8667,0,-1.8663,-1.8666,-1.8711,-1.8696,-1.8701,-1.8721,-1.8723,-1.8734,-1.8729,-1.8718,-1.872,-1.8694,-1.8717,-1.8677,-1.8707,-1.8678,-1.8684,-1.8678,-1.868,-1.868,-1.8636,-1.8703,-1.8813,-1.8823,-1.8681,-1.868,-1.8679,0,-1.8745,-1.876,-1.8789,-1.8788,-1.8772,-1.8787,-1.8781,-1.8773,-1.8778,-1.878,-1.8783,-1.8789,-1.8792,-1.8797,-1.8773,-1.8746,-1.8807,-1.8765,-1.8799,-1.8799,-1.8813,-1.8813,-1.8926,-1.8817,-1.8817,-1.8817,-1.8817,0,-1.8832,-1.8861,-1.8825,-1.8843,-1.8874,-1.8843,-1.8875,-1.8865,-1.8858,-1.8873,-1.8839,-1.8854,-1.8822,-1.8834,-1.8815,-1.8843,-1.8845,-1.8837,-1.8832,-1.884,-1.8841,-1.8843,-1.8837,-1.882,-1.8819,-1.8819,-1.8818,0,-1.8929,-1.8906,-1.8935,-1.8917,-1.8913,-1.8937,-1.8922,-1.8937,-1.8922,-1.8941,-1.8944,-1.8921,-1.8932,-1.8909,-1.8919,-1.8906,-1.8945,-1.8933,-1.8947,-1.8943,-1.8978,-1.8975,-1.9096,-1.911,-1.8993,-1.8994,-1.8995,0,-1.8986,-1.9007,-1.8991,-1.8998,-1.8994,-1.9006,-1.9011,-1.8981,-1.8987,-1.8982,-1.8999,-1.9007,-1.9013,-1.9034,-1.9018,-1.9024,-1.9011,-1.9053,-1.9012,-1.902,-1.9012,-1.901,-1.9012,-1.9062,-1.9063,-1.9064,-1.9065,0,-1.9089,-1.9077,-1.9084,-1.9087,-1.9093,-1.9094,-1.9093,-1.9101,-1.907,-1.9079,-1.909,-1.9094,-1.9103,-1.9112,-1.9115,-1.9109,-1.9082,-1.9078,-1.9086,-1.9095,-1.9102,-1.9098,-1.897,-1.9076,-1.9075,-1.9074,-1.9073,-1.9073,-1.9168,-1.9184,-1.9175,-1.9184,-1.918,-1.918,-1.9193,-1.9179,-1.9188,-1.9192,-1.9174,-1.9189,-1.9183,-1.9183,-1.918,-1.9192,-1.9173,-1.9185,-1.9188,-1.9191,-1.9197,-1.91,-1.9192,-1.9192,-1.9192,-1.9192,-1.9191,0,-1.9268,-1.926,-1.9269,-1.9268,-1.9275,-1.9248,-1.9245,-1.9253,-1.9267,-1.9262,-1.9268,-1.9281,-1.9289,-1.9274,-1.928,-1.9292,-1.928,-1.9295,-1.9293,-1.9292,-1.9213,-1.9206,-1.9304,-1.9304,-1.9304,-1.9304,-1.9304,-1.9304,-1.9322,-1.9348,-1.9334,-1.9357,-1.9349,-1.9363,-1.9364,-1.9363,-1.9359,-1.9375,-1.9381,-1.9371,-1.9362,-1.9367,-1.9374,-1.9369,-1.9373,-1.9392,-1.9383,-1.9309,-1.9298,-1.9288,-1.928,-1.9393,-1.9393,-1.946,-1.9461,-1.9462]},{"header":{"parameterUnit":"m.s-1","parameterCategory":1,"la1":30.2991,"la2":30.254,"lo1":-89.0895,"lo2":-89.0444,"dy":0.0017,"dx":0.0017,"nx":28,"ny":28,"refTime":"2026-03-02T09:00:00:Z","depth":0,"parameterNumber":3,"parameterNumberName":"V-component_of_WINDS"},"data":[0,0,0,0,0,0,0,0,0,0,0,0,0,0,0,0,0,0,0,0,0,0,0,0,0,0,0,0,0,0,0,0,0,0,0,0,0,0,0,0,0,0,0,0,0,0,0,0,0,0,0,0,0,0,0,0,0,0,-0.4477,-0.4475,0,-0.4363,-0.4362,-0.4361,-0.4349,-0.435,-0.4351,-0.4353,-0.4235,-0.4231,-0.4227,0,0,0,0,0,0,0,0,0,0,0,0,0,-0.468,-0.4676,-0.4477,-0.4475,-0.4474,-0.4364,-0.4362,-0.436,-0.4349,-0.435,-0.4352,-0.4353,-0.4237,-0.4232,-0.4227,0,0,0,0,0,0,0,0,0,0,0,0,0,-0.4582,-0.4675,-0.4477,-0.4455,-0.4452,-0.4364,-0.4362,-0.436,-0.4349,-0.435,-0.4352,-0.4354,-0.4238,-0.4232,-0.4226,-0.4152,0,0,-0.4207,-0.4204,0,0,0,0,0,0,0,0,-0.4587,-0.4574,-0.446,-0.4456,-0.4453,-0.4372,-0.4391,-0.429,-0.4348,-0.4388,-0.4353,-0.4355,-0.4279,-0.427,-0.4245,-0.4146,-0.4141,-0.4206,-0.4202,-0.42,-0.4198,0,0,0,0,0,0,0,-0.4594,-0.4579,-0.4432,-0.4458,-0.4454,-0.4449,-0.4438,-0.4372,-0.4325,-0.4384,-0.4383,-0.437,-0.4278,-0.4251,-0.4242,-0.414,-0.4206,-0.4201,-0.4197,-0.4194,-0.3972,-0.397,0,0,0,0,0,0,-0.4605,-0.4585,-0.4435,-0.4428,-0.4526,-0.4444,-0.4431,-0.4396,-0.4326,-0.4317,-0.4369,-0.437,-0.4261,-0.4249,-0.4238,-0.4144,-0.42,-0.4194,-0.419,-0.3974,-0.3971,-0.3969,0,0,0,0,0,0,-0.461,-0.4592,-0.444,-0.4506,-0.4487,-0.4439,-0.44,-0.4393,-0.4366,-0.4314,-0.4305,-0.435,-0.4262,-0.4246,-0.4173,-0.414,-0.4191,-0.4185,-0.3976,-0.3973,-0.397,-0.3958,0,0,0,0,0,0,-0.4616,-0.4594,-0.4566,-0.4506,-0.4483,-0.4378,-0.4398,-0.439,-0.4355,-0.4356,-0.4294,-0.4285,-0.4262,-0.4182,-0.4166,-0.4132,-0.418,-0.3979,-0.3975,-0.3971,-0.3961,-0.3955,-0.3949,0,0,0,0,0,-0.4623,-0.4568,-0.4565,-0.4547,-0.4448,-0.4376,-0.4363,-0.4338,-0.4353,-0.4324,-0.429,-0.4287,-0.4146,-0.4175,-0.4157,-0.412,-0.3981,-0.3976,-0.3971,-0.3964,-0.3956,-0.3949,0,0,0,0,0,0,-0.4626,-0.4559,-0.4556,-0.4479,-0.4433,-0.4374,-0.4337,-0.4331,-0.4279,-0.4282,-0.4252,-0.4238,-0.4165,-0.4135,-0.4168,-0.4043,-0.4065,-0.4056,-0.4065,-0.4057,-0.4052,-0.406,-0.4175,0,0,0,0,0,-0.4618,-0.4566,-0.451,-0.4448,-0.4425,-0.4385,-0.4353,-0.4337,-0.4288,-0.4269,-0.423,-0.4182,-0.4126,-0.409,-0.4037,-0.3957,-0.3942,-0.3923,-0.3917,-0.3912,-0.3905,-0.3858,-0.3848,-0.3953,-0.3953,-0.3953,0,0,-0.46,-0.4557,-0.4527,-0.4448,-0.441,-0.4356,-0.4369,-0.4312,-0.4271,-0.426,-0.4187,-0.4157,-0.4101,-0.4023,-0.3987,-0.3996,-0.3872,-0.3906,-0.3903,-0.3898,-0.3852,-0.3842,-0.3833,-0.395,-0.3951,-0.3951,0,0,-0.454,-0.4503,-0.4446,-0.4408,-0.4351,-0.4324,-0.431,-0.4251,-0.4231,-0.4157,-0.4147,-0.4098,-0.4004,-0.3963,-0.3931,-0.3852,-0.3847,-0.3836,-0.3805,-0.3759,-0.3751,-0.3743,-0.3713,-0.3703,-0.3829,-0.3829,-0.3829,0,-0.4525,-0.4444,-0.4418,-0.436,-0.4324,-0.4312,-0.4253,-0.4217,-0.4145,-0.412,-0.4132,-0.4011,-0.3973,-0.3885,-0.3865,-0.384,-0.3822,-0.3843,-0.3754,-0.3747,-0.3739,-0.371,-0.3699,-0.3828,-0.3828,-0.3828,-0.3828,0,-0.4427,-0.4371,-0.4331,-0.4262,-0.4222,-0.4164,-0.4127,-0.409,-0.4077,-0.4048,-0.3972,-0.3926,-0.3861,-0.3839,-0.3826,-0.3747,-0.3755,-0.3761,-0.3782,-0.3728,-0.37,-0.3689,-0.3826,-0.3826,-0.3827,-0.3827,0,0,-0.4367,-0.4282,-0.4268,-0.4235,-0.417,-0.4125,-0.4065,-0.4002,-0.3969,-0.3919,-0.3867,-0.3786,-0.3791,-0.3754,-0.3736,-0.3696,-0.3634,-0.3706,-0.3705,-0.3693,-0.3541,-0.3536,-0.3524,-0.363,-0.3628,-0.3626,-0.3546,0,-0.4298,-0.4192,-0.4165,-0.4074,-0.402,-0.4006,-0.3953,-0.3907,-0.3878,-0.3827,-0.3795,-0.3737,-0.3749,-0.3726,-0.3686,-0.365,-0.3603,-0.3656,-0.358,-0.3578,-0.3593,-0.351,-0.3505,-0.3431,-0.3535,-0.3533,-0.3532,0,-0.4204,-0.4151,-0.4054,-0.3994,-0.397,-0.3923,-0.3862,-0.3814,-0.376,-0.3741,-0.3698,-0.3684,-0.3619,-0.3644,-0.3553,-0.359,-0.3557,-0.3535,-0.3531,-0.3522,-0.3551,-0.3497,-0.3407,-0.3395,-0.3515,-0.3516,-0.3517,0,-0.4167,-0.4072,-0.4001,-0.3974,-0.3902,-0.3868,-0.3837,-0.3785,-0.3747,-0.3693,-0.3668,-0.3607,-0.3574,-0.3526,-0.3495,-0.3516,-0.3406,-0.3429,-0.3387,-0.3388,-0.3364,-0.3366,-0.3266,-0.3346,-0.3346,-0.3346,-0.3346,0,-0.4093,-0.4033,-0.3983,-0.394,-0.3872,-0.3841,-0.3775,-0.3742,-0.3696,-0.3644,-0.3629,-0.358,-0.3543,-0.3489,-0.3464,-0.3391,-0.3377,-0.3359,-0.3353,-0.3359,-0.3361,-0.3337,-0.3341,-0.3343,-0.3344,-0.3344,-0.3345,0,-0.404,-0.4005,-0.3926,-0.3863,-0.3846,-0.3799,-0.3744,-0.37,-0.367,-0.3605,-0.3588,-0.3541,-0.3476,-0.344,-0.336,-0.3343,-0.3261,-0.3259,-0.3279,-0.3276,-0.3236,-0.324,-0.3116,-0.3097,-0.3191,-0.319,-0.3189,0,-0.3995,-0.3948,-0.388,-0.3844,-0.3812,-0.3755,-0.3716,-0.3683,-0.3644,-0.3577,-0.354,-0.3475,-0.3421,-0.3318,-0.3276,-0.3214,-0.3208,-0.3169,-0.3199,-0.3206,-0.3205,-0.3208,-0.3202,-0.3164,-0.3163,-0.3162,-0.3161,0,-0.3916,-0.39,-0.3845,-0.3783,-0.3737,-0.3687,-0.3637,-0.3608,-0.3567,-0.3522,-0.3456,-0.3414,-0.333,-0.3265,-0.3198,-0.3165,-0.3155,-0.3152,-0.3139,-0.3145,-0.3158,-0.3148,-0.3264,-0.3155,-0.3156,-0.3156,-0.3157,-0.3157,-0.3864,-0.3822,-0.3766,-0.3705,-0.3663,-0.3616,-0.3571,-0.3534,-0.3479,-0.3408,-0.3392,-0.3321,-0.3266,-0.3175,-0.314,-0.3083,-0.309,-0.3072,-0.3067,-0.3062,-0.306,-0.3168,-0.3071,-0.3071,-0.3071,-0.3071,-0.3071,0,-0.3784,-0.3747,-0.3691,-0.362,-0.3571,-0.3566,-0.351,-0.3469,-0.3407,-0.3356,-0.3302,-0.3225,-0.316,-0.3112,-0.3046,-0.301,-0.3004,-0.2993,-0.2995,-0.2987,-0.3058,-0.3075,-0.2999,-0.2999,-0.2999,-0.2999,-0.2999,-0.2999,-0.3736,-0.3663,-0.3639,-0.3544,-0.3507,-0.3438,-0.3406,-0.3361,-0.332,-0.3234,-0.318,-0.3149,-0.3098,-0.3028,-0.2968,-0.2956,-0.2931,-0.2921,-0.2908,-0.2975,-0.2982,-0.299,-0.3006,-0.2916,-0.2916,-0.2841,-0.2841,-0.284]}]]